Flag for Norway Weather past 2 weeks in Nøtterøy, Norway

Now
70 °F

Sunny.


Feels Like: 70 °F
Forecast: 62 / 75 °F
Wind: 21 mph from Southwest

Location: Torp

Current Time: Aug 1, 2014 at 4:01:36 PM

Latest Report: Aug 1, 2014 at 3:20 PM


Visibility: 10 mi

Pressure: 29.83 "Hg

Humidity: 57%

Dew point: 54 °F

Location of NøtterøyLocation

Historic Weather in Nøtterøy — Graph

°F

Nøtterøy temperature yesterday

Maximum temperature yesterday: 73 °F (at 7:20 PM)
Minimum temperature yesterday: 55 °F (at 2:50 AM)
Average temperature yesterday: 65 °F

Past Weeks' High & Low Weather Summary

 TemperatureHumidityPressure
High90 °F (Jul 23, 4:20 PM)100% (Jul 18, 1:50 AM)30.30 "Hg (Jul 18, 1:50 AM)
Low52 °F (Jul 18, 4:50 AM)31% (Jul 23, 4:50 PM)29.62 "Hg (Jul 30, 7:50 AM)
Average70 °F65%30.01 "Hg
* Reported Jul 17 2:20 PM — Aug 1 2:50 PM, Nøtterøy, Weather by CustomWeather, © 2014

Note: Actual official high and low records may vary slightly from our data, if they occured in-between our weather recording intervals... More about our weather records

Advertising

Nøtterøy weather history for previous 24 hours

 ConditionsComfort  
Time TempWeatherWind HumidityBarometerVisibility
2:50 PM
Aug 1
72 °FSunny.22 mph53%29.83 "Hg10 mi
2:20 PM72 °FSunny.21 mph53%29.83 "Hg10 mi
1:50 PM72 °FPassing clouds.22 mph53%29.83 "HgN/A
1:20 PM72 °FPassing clouds.18 mph53%29.83 "HgN/A
12:50 PM70 °FPassing clouds.16 mph57%29.80 "HgN/A
12:20 PM70 °FScattered clouds.16 mph57%29.80 "HgN/A
11:50 AM70 °FScattered clouds.14 mph53%29.80 "HgN/A
11:20 AM68 °FScattered clouds.12 mph60%29.80 "HgN/A
10:50 AM68 °FScattered clouds.15 mph56%29.80 "HgN/A
10:20 AM66 °FPassing clouds.14 mph64%29.77 "HgN/A
9:50 AM66 °FPassing clouds.14 mph60%29.77 "HgN/A
9:20 AM64 °FPassing clouds.15 mph64%29.77 "HgN/A
8:50 AM64 °FPassing clouds.13 mph68%29.77 "HgN/A
8:20 AM63 °FPassing clouds.12 mph73%29.77 "HgN/A
7:50 AM61 °FPassing clouds.13 mph77%29.74 "HgN/A
7:20 AM61 °FPassing clouds.12 mph77%29.77 "HgN/A
6:50 AM59 °FPassing clouds.10 mph82%29.74 "HgN/A
6:20 AM59 °FPassing clouds.13 mph82%29.74 "HgN/A
5:50 AM59 °FPassing clouds.9 mph82%29.74 "HgN/A
5:20 AM59 °FCool.8 mph82%29.74 "HgN/A
4:50 AM59 °FPassing clouds.10 mph82%29.74 "HgN/A
4:20 AM59 °FCool.8 mph82%29.74 "HgN/A
3:50 AM61 °FCool.9 mph77%29.74 "HgN/A
3:20 AM61 °FPassing clouds.9 mph77%29.74 "HgN/A
2:50 AM61 °FOvercast.10 mph83%29.74 "HgN/A
2:20 AM61 °FPassing clouds.7 mph83%29.74 "HgN/A
1:50 AM61 °FPassing clouds.9 mph83%29.74 "HgN/A
1:20 AM61 °FOvercast.10 mph83%29.74 "HgN/A
12:50 AM61 °FPassing clouds.9 mph77%29.74 "HgN/A
12:20 AM61 °FClear.7 mph77%29.74 "Hg10 mi
11:50 PM
Jul 31
61 °FClear.7 mph77%29.71 "Hg10 mi
11:20 PM61 °FClear.8 mph77%29.71 "Hg10 mi
10:50 PM63 °FClear.9 mph73%29.71 "Hg10 mi
10:20 PM64 °FSunny.9 mph68%29.71 "Hg10 mi
9:50 PM64 °FPassing clouds.9 mph68%29.71 "HgN/A
9:20 PM66 °FSunny.12 mph64%29.71 "Hg10 mi
8:50 PM68 °FSunny.13 mph56%29.71 "Hg10 mi
8:20 PM68 °FSunny.14 mph60%29.68 "Hg10 mi
7:50 PM70 °FSunny.14 mph57%29.68 "Hg10 mi
7:20 PM73 °FPassing clouds.12 mph38%29.68 "HgN/A
6:50 PM72 °FPassing clouds.8 mph41%29.68 "HgN/A
6:20 PM72 °FSunny.9 mph50%29.68 "Hg10 mi
5:50 PM72 °FSunny.13 mph50%29.68 "Hg10 mi
5:20 PM70 °FSunny.16 mph57%29.68 "Hg10 mi
4:50 PM72 °FSunny.16 mph50%29.68 "Hg10 mi
4:20 PM72 °FBroken clouds.18 mph53%29.68 "HgN/A
Weather by CustomWeather, © 2014

See weather overviewHow to use our weather pages